Fayetteville, AR

11:22 AM CDT on June 25, 2018 (GMT -0500)
Drake

Weather History for KFYV - September, 2017

Change the Weather History Date:

Thursday, September 14, 2017

  Actual Average Record
Temperature  
Mean Temperature 67 °F 69 °F  
Max Temperature 85 °F 81 °F 98 °F (1980)
Min Temperature 48 °F 57 °F 44 °F (1959)
Degree Days  
Heating Degree Days 0 1  
Month to date heating degree days 16 4  
Since 1 July heating degree days 16 5  
Cooling Degree Days 2 5  
Month to date cooling degree days 34 101  
Year to date cooling degree days 1046 1226  
Growing Degree Days 16 (Base 50)    
Moisture  
Dew Point 56 °F    
Average Humidity 69    
Maximum Humidity 100    
Minimum Humidity 37    
Precipitation  
Precipitation 0.00 in 0.16 in 3.25 in (2008)
Month to date precipitation 0.00 2.04  
Year to date precipitation 42.84 33.93  
Sea Level Pressure  
Sea Level Pressure 29.88 in    
Wind  
Wind Speed 3 mph (SSW)    
Max Wind Speed 14 mph    
Max Gust Speed 18 mph    
Visibility 9 miles    
Events      
T = Trace of Precipitation, MM = Missing Value Source: NWS Daily Summary

Daily Weather History Graph

Daily Weather History Graph

Search for Another Location

Airport or City:

Astronomy

Sep. 14, 2017 Rise Set
Actual Time 6:58 AM CDT 7:24 PM CDT
Civil Twilight 6:32 AM CDT 7:50 PM CDT
Nautical Twilight 6:02 AM CDT 8:20 PM CDT
Astronomical Twilight 5:31 AM CDT 8:51 PM CDT
Moon 1:04 AM CDT (9/14) 3:34 PM CDT (9/14)
Length of Visible Light 13h 17m
Length of Day
12h 26m
Waning Crescent, 34% of the Moon is Illuminated
Sep 14
Waning Crescent
Sep 20
New
Sep 27
First Quarter
Oct 5
Full
Oct 12
Last Quarter

Hourly Weather History & Observations

Time (CDT) Temp. Heat Index Dew Point Humidity Pressure Visibility Wind Dir Wind Speed Gust Speed Precip Events Conditions
12:53 AM 55.0 °F - 55.0 °F 100% 29.85 in 10.0 mi Calm Calm - N/A   Clear
1:53 AM 54.0 °F - 54.0 °F 100% 29.84 in 10.0 mi Calm Calm - N/A   Clear
2:53 AM 51.1 °F - 51.1 °F 100% 29.85 in 3.0 mi Calm Calm - N/A   Clear
3:53 AM 50.0 °F - 50.0 °F 100% 29.86 in 3.0 mi Calm Calm - N/A   Clear
4:04 AM 50.0 °F - 50.0 °F 100% 29.88 in 1.8 mi Calm Calm - N/A   Clear
4:14 AM 51.1 °F - 51.1 °F 100% 29.88 in 3.0 mi Calm Calm - N/A   Clear
4:53 AM 50.0 °F - 50.0 °F 100% 29.86 in 7.0 mi Calm Calm - N/A   Clear
5:53 AM 50.0 °F - 50.0 °F 100% 29.88 in 10.0 mi Calm Calm - N/A   Clear
6:53 AM 48.9 °F - 48.9 °F 100% 29.89 in 10.0 mi Calm Calm - N/A   Clear
7:53 AM 52.0 °F - 52.0 °F 100% 29.91 in 10.0 mi Calm Calm - N/A   Clear
8:53 AM 57.9 °F - 57.9 °F 100% 29.91 in 10.0 mi Calm Calm - N/A   Clear
9:53 AM 66.9 °F - 61.0 °F 81% 29.93 in 10.0 mi Calm Calm - N/A   Clear
10:53 AM 77.0 °F - 57.0 °F 50% 29.91 in 10.0 mi WSW 9.2 mph - N/A   Clear
11:53 AM 80.1 °F 80.4 °F 57.0 °F 45% 29.91 in 10.0 mi SW 6.9 mph - N/A   Clear
12:53 PM 82.0 °F 82.0 °F 57.9 °F 44% 29.90 in 10.0 mi SSW 9.2 mph - N/A   Clear
1:53 PM 82.9 °F 82.6 °F 57.9 °F 42% 29.88 in 10.0 mi SW 8.1 mph - N/A   Clear
2:53 PM 84.0 °F 82.9 °F 55.0 °F 37% 29.87 in 10.0 mi SSW 9.2 mph - N/A   Clear
3:53 PM 84.9 °F 83.9 °F 57.0 °F 38% 29.84 in 10.0 mi South 9.2 mph - N/A   Clear
4:53 PM 84.0 °F 83.0 °F 55.9 °F 38% 29.84 in 10.0 mi South 9.2 mph - N/A   Clear
5:53 PM 82.0 °F 82.0 °F 57.9 °F 44% 29.86 in 10.0 mi South 9.2 mph - N/A   Clear
6:53 PM 78.1 °F - 61.0 °F 56% 29.86 in 10.0 mi Calm Calm - N/A   Clear
7:53 PM 68.0 °F - 62.1 °F 81% 29.87 in 10.0 mi Calm Calm - N/A   Clear
8:53 PM 64.0 °F - 63.0 °F 96% 29.88 in 10.0 mi Calm Calm - N/A   Clear
9:53 PM 63.0 °F - 62.1 °F 97% 29.89 in 10.0 mi Calm Calm - N/A   Clear
10:53 PM 60.1 °F - 60.1 °F 100% 29.88 in 10.0 mi Calm Calm - N/A   Clear
11:53 PM 59.0 °F - 59.0 °F 100% 29.90 in 10.0 mi Calm Calm - N/A   Clear